Previsão horária em Celinnyy

Hoje, 29 Julho, Quinta-feira

Tempo Temperatura Precipitação Vento Pressão Humidade
00:00 +23°C° 0 mm 1 m/s 754 mmHg 51%
01:00 +22°C° 0 mm 1 m/s 754 mmHg 52%
02:00 +22°C° 0 mm 1 m/s 754 mmHg 53%
03:00 +22°C° 0 mm 1 m/s 754 mmHg 54%
04:00 +23°C° 0 mm 1 m/s 754 mmHg 52%
05:00 +23°C° 0 mm 2 m/s 754 mmHg 50%
06:00 +24°C° 0 mm 2 m/s 754 mmHg 49%
07:00 +26°C° 0 mm 3 m/s 754 mmHg 44%
08:00 +27°C° 0 mm 3 m/s 753 mmHg 38%
09:00 +29°C° 0 mm 3 m/s 753 mmHg 35%
10:00 +28°C° 0 mm 3 m/s 753 mmHg 36%
11:00 +27°C° 0 mm 3 m/s 753 mmHg 37%
12:00 +27°C° 0 mm 3 m/s 753 mmHg 39%
13:00 +28°C° 0 mm 3 m/s 753 mmHg 36%
14:00 +29°C° 0 mm 3 m/s 752 mmHg 33%
15:00 +30°C° 0 mm 3 m/s 752 mmHg 31%
16:00 +30°C° 0 mm 3 m/s 752 mmHg 33%
17:00 +29°C° 0 mm 3 m/s 751 mmHg 34%
18:00 +28°C° 0 mm 3 m/s 751 mmHg 36%
19:00 +27°C° 0 mm 3 m/s 751 mmHg 38%
20:00 +26°C° 0 mm 3 m/s 751 mmHg 41%
21:00 +26°C° 0 mm 2 m/s 750 mmHg 43%
22:00 +25°C° 0 mm 2 m/s 750 mmHg 46%
23:00 +24°C° 0 mm 2 m/s 750 mmHg 50%

Amanhã, 30 Julho, Sexta-feira

Tempo Temperatura Precipitação Vento Pressão Humidade
00:00 +23°C° 0 mm 2 m/s 750 mmHg 53%
01:00 +23°C° 0.1 mm 2 m/s 750 mmHg 56%
02:00 +21°C° 0.1 mm 3 m/s 750 mmHg 59%
03:00 +21°C° 0.1 mm 3 m/s 750 mmHg 62%
04:00 +21°C° 0.1 mm 3 m/s 750 mmHg 62%
05:00 +22°C° 0.1 mm 3 m/s 750 mmHg 62%
06:00 +24°C° 0.1 mm 3 m/s 750 mmHg 62%
07:00 +26°C° 0 mm 3 m/s 750 mmHg 57%
08:00 +28°C° 0 mm 3 m/s 750 mmHg 51%
09:00 +31°C° 0 mm 3 m/s 750 mmHg 45%
10:00 +33°C° 0 mm 4 m/s 750 mmHg 40%
11:00 +34°C° 0 mm 4 m/s 750 mmHg 36%
12:00 +36°C° 0 mm 5 m/s 750 mmHg 31%
13:00 +35°C° 0.1 mm 4 m/s 750 mmHg 34%
14:00 +34°C° 0.1 mm 4 m/s 749 mmHg 36%
15:00 +33°C° 0.1 mm 4 m/s 749 mmHg 39%
16:00 +30°C° 0.2 mm 4 m/s 749 mmHg 47%
17:00 +28°C° 0.2 mm 5 m/s 749 mmHg 56%
18:00 +26°C° 0.2 mm 5 m/s 749 mmHg 64%
19:00 +26°C° 0.1 mm 4 m/s 749 mmHg 63%
20:00 +26°C° 0.1 mm 3 m/s 749 mmHg 62%
21:00 +26°C° 0.1 mm 2 m/s 749 mmHg 61%
22:00 +25°C° 0.2 mm 2 m/s 749 mmHg 63%
23:00 +25°C° 0.2 mm 2 m/s 750 mmHg 66%

Depois de amanhã, 31 Julho, Sábado

Tempo Temperatura Precipitação Vento Pressão Humidade
00:00 +24°C° 0.2 mm 2 m/s 750 mmHg 69%
01:00 +24°C° 0.1 mm 2 m/s 750 mmHg 69%
02:00 +24°C° 0.1 mm 2 m/s 750 mmHg 70%
03:00 +23°C° 0.1 mm 2 m/s 749 mmHg 70%
04:00 +24°C° 0 mm 2 m/s 749 mmHg 68%
05:00 +25°C° 0 mm 2 m/s 749 mmHg 65%
06:00 +26°C° 0 mm 2 m/s 749 mmHg 62%
07:00 +28°C° 0 mm 3 m/s 749 mmHg 53%
08:00 +30°C° 0 mm 4 m/s 749 mmHg 45%
09:00 +34°C° 0 mm 5 m/s 749 mmHg 37%
10:00 +34°C° 0 mm 5 m/s 749 mmHg 36%
11:00 +34°C° 0 mm 5 m/s 749 mmHg 36%
12:00 +34°C° 0 mm 6 m/s 749 mmHg 35%
13:00 +35°C° 0 mm 6 m/s 749 mmHg 34%
14:00 +35°C° 0 mm 7 m/s 749 mmHg 33%
15:00 +36°C° 0 mm 7 m/s 749 mmHg 32%
16:00 +35°C° 0.1 mm 6 m/s 749 mmHg 38%
17:00 +33°C° 0.1 mm 6 m/s 750 mmHg 44%
18:00 +32°C° 0.1 mm 5 m/s 750 mmHg 50%
19:00 +29°C° 0.4 mm 4 m/s 750 mmHg 58%
20:00 +27°C° 0.4 mm 3 m/s 751 mmHg 65%
21:00 +26°C° 0.4 mm 1 m/s 751 mmHg 73%
22:00 +25°C° 0 mm 2 m/s 751 mmHg 73%
23:00 +25°C° 0 mm 2 m/s 751 mmHg 74%

1 Agosto, Domingo

Tempo Temperatura Precipitação Vento Pressão Humidade
00:00 +25°C° 0 mm 2 m/s 751 mmHg 74%
01:00 +24°C° 0 mm 2 m/s 752 mmHg 72%
02:00 +24°C° 0 mm 2 m/s 752 mmHg 70%
03:00 +22°C° 0 mm 3 m/s 752 mmHg 68%
04:00 +24°C° 0 mm 2 m/s 752 mmHg 66%
05:00 +24°C° 0 mm 2 m/s 753 mmHg 64%
06:00 +25°C° 0 mm 2 m/s 753 mmHg 62%
07:00 +27°C° 0 mm 2 m/s 753 mmHg 52%
08:00 +29°C° 0 mm 2 m/s 753 mmHg 42%
09:00 +31°C° 0 mm 2 m/s 754 mmHg 32%
10:00 +32°C° 0 mm 2 m/s 753 mmHg 30%
11:00 +34°C° 0 mm 2 m/s 753 mmHg 27%
12:00 +35°C° 0 mm 2 m/s 753 mmHg 25%
13:00 +35°C° 0 mm 2 m/s 753 mmHg 24%
14:00 +36°C° 0 mm 2 m/s 753 mmHg 23%
15:00 +36°C° 0 mm 2 m/s 753 mmHg 23%
16:00 +36°C° 0 mm 2 m/s 753 mmHg 24%
17:00 +35°C° 0 mm 2 m/s 753 mmHg 26%
18:00 +34°C° 0 mm 1 m/s 753 mmHg 27%
19:00 +32°C° 0 mm 1 m/s 753 mmHg 30%
20:00 +30°C° 0 mm 2 m/s 753 mmHg 33%
21:00 +28°C° 0 mm 2 m/s 753 mmHg 36%
22:00 +28°C° 0 mm 2 m/s 753 mmHg 36%
23:00 +27°C° 0 mm 2 m/s 753 mmHg 37%

2 Agosto, Segunda-feira

Tempo Temperatura Precipitação Vento Pressão Humidade
00:00 +27°C° 0 mm 3 m/s 753 mmHg 38%
01:00 +26°C° 0 mm 3 m/s 753 mmHg 39%
02:00 +26°C° 0 mm 3 m/s 753 mmHg 39%
03:00 +26°C° 0 mm 3 m/s 753 mmHg 39%
04:00 +26°C° 0 mm 2 m/s 753 mmHg 39%
05:00 +27°C° 0 mm 2 m/s 753 mmHg 39%
06:00 +28°C° 0 mm 2 m/s 754 mmHg 39%
07:00 +30°C° 0.1 mm 2 m/s 754 mmHg 34%
08:00 +33°C° 0.1 mm 3 m/s 754 mmHg 30%
09:00 +35°C° 0.1 mm 3 m/s 754 mmHg 26%
10:00 +36°C° 0 mm 3 m/s 753 mmHg 25%
11:00 +37°C° 0 mm 3 m/s 753 mmHg 24%
12:00 +38°C° 0 mm 3 m/s 753 mmHg 23%
13:00 +39°C° 0 mm 3 m/s 752 mmHg 21%
14:00 +39°C° 0 mm 3 m/s 752 mmHg 20%
15:00 +40°C° 0 mm 3 m/s 752 mmHg 18%
16:00 +39°C° 0 mm 3 m/s 752 mmHg 20%
17:00 +38°C° 0 mm 3 m/s 751 mmHg 22%
18:00 +36°C° 0 mm 2 m/s 751 mmHg 24%
19:00 +35°C° 0 mm 3 m/s 752 mmHg 27%
20:00 +33°C° 0 mm 3 m/s 752 mmHg 29%
21:00 +32°C° 0 mm 4 m/s 752 mmHg 32%
22:00 +30°C° 0 mm 4 m/s 752 mmHg 33%
23:00 +30°C° 0 mm 4 m/s 752 mmHg 35%

3 Agosto, Terça-feira

Tempo Temperatura Precipitação Vento Pressão Humidade
00:00 +29°C° 0 mm 4 m/s 751 mmHg 36%
01:00 +29°C° 0 mm 4 m/s 751 mmHg 36%
02:00 +29°C° 0 mm 4 m/s 751 mmHg 36%
03:00 +29°C° 0 mm 5 m/s 752 mmHg 35%
04:00 +29°C° 0 mm 5 m/s 752 mmHg 36%
05:00 +30°C° 0 mm 5 m/s 752 mmHg 37%
06:00 +30°C° 0 mm 5 m/s 752 mmHg 37%
07:00 +33°C° 0 mm 5 m/s 752 mmHg 32%
08:00 +36°C° 0 mm 6 m/s 752 mmHg 27%
09:00 +39°C° 0 mm 6 m/s 752 mmHg 22%
10:00 +40°C° 0 mm 6 m/s 752 mmHg 19%
11:00 +42°C° 0 mm 6 m/s 751 mmHg 16%
12:00 +43°C° 0 mm 5 m/s 751 mmHg 12%
13:00 +43°C° 0 mm 5 m/s 751 mmHg 12%
14:00 +45°C° 0 mm 5 m/s 750 mmHg 12%
15:00 +45°C° 0 mm 5 m/s 750 mmHg 11%
16:00 +43°C° 0 mm 4 m/s 750 mmHg 12%
17:00 +42°C° 0 mm 4 m/s 750 mmHg 14%
18:00 +40°C° 0 mm 3 m/s 750 mmHg 15%
19:00 +38°C° 0 mm 3 m/s 750 mmHg 17%
20:00 +35°C° 0 mm 3 m/s 750 mmHg 18%
21:00 +33°C° 0 mm 3 m/s 750 mmHg 20%
22:00 +33°C° 0 mm 3 m/s 750 mmHg 21%
23:00 +31°C° 0 mm 3 m/s 750 mmHg 21%
Mostrar mais

Necessitamos do seu Consentimento

A Meteoprog e os seus Fornecedores de Serviços podem armazenar e aceder a dados pessoais como cookies, identificadores do dispositivo ou outras tecnologias semelhantes existentes no seu dispositivo e processar estes dados para personalizar conteúdos e anúncios, assim como funcionalidades nas redes sociais e análise de tráfego.

  • Armazenar e/ou aceder a informações no seu dispositivo

    Os cookies, identificadores do dispositivo ou outras informações podem ser armazenados ou acedidos no seu dispositivo, para os fins acima indicados.

  • Anúncios e conteúdos personalizados, medição de anúncios e conteúdos, dados sobre o público-alvo e desenvolvimento de produtos

    Os anúncios e os conteúdos podem ser personalizados com base num perfil. Podem ser adicionados dados adicionais para uma maior personalização dos anúncios e dos conteúdos. A eficácia dos anúncios e dos conteúdos pode ser medida. Podem ser obtidas informações sobre o público que visualizou os anúncios e os conteúdos. Estes dados podem ser usados para desenvolver ou melhorar sistemas, softwares ou a experiência do utilizador.

Ao clicar em "Eu concordo”, permitirá o uso de cookies, identificadores do dispositivo e web beacons mencionados ou outras tecnologias semelhantes. As configurações do navegador do seu dispositivo podem ser alteradas.

Para certos fins, podem ser invocados interesses legítimos ao invés de consentimento. Pode ler mais informação sobre este assunto na nossa Política de Privacidade e Cookies.